Regional Weather Roundup
Issued by NWS Newport/Morehead, NC

Current Version | Previous Version | Graphics & Text | Print | Product List | Glossary Off
Versions: 1 2 3 4 5 6 7 8 9 10 11 12 13 14 15 16 17 18 19 20 21 22 23 24 25 26 27 28 29 30 31 32 33 34 35 36 37 38 39 40 41 42 43 44 45 46 47 48 49 50

000
ASUS42 KMHX 220522
RWRMHX
WEATHER ROUNDUP FOR EASTERN NORTH CAROLINA
NATIONAL WEATHER SERVICE NEWPORT/MOREHEAD CITY NC
100 AM EDT WED OCT 22 2014

NOTE: "FAIR" INDICATES FEW OR NO CLOUDS BELOW 12,000 FEET
WITH NO SIGNIFICANT WEATHER AND/OR OBSTRUCTIONS TO VISIBILITY

NCZ015>017-031-032-045>047-102-103-220600-
NORTH COAST

CITY           SKY/WX    TMP DP  RH WIND       PRES   REMARKS
EDENTON        CLOUDY    56  53  90 NW5       29.85F
ELIZABETH CITY CLOUDY    59  54  83 NW3       29.84F
KITTY HAWK     CLOUDY    62  53  72 NW8       29.81F
MANTEO         CLOUDY    62  53  73 NW9       29.83F

$$

NCZ045>047-081-094-103-104-220600-
CENTRAL COAST

CITY           SKY/WX    TMP DP  RH WIND       PRES   REMARKS
FRISCO         CLEAR     66  62  87 W8        29.81F
SWANQUARTER      N/A     59 N/A N/A NW6       29.79S

$$

NCZ095-097-098-100-101-220600-
SOUTHERN COAST

CITY           SKY/WX    TMP DP  RH WIND       PRES   REMARKS
BEAUFORT       CLEAR     63  58  83 NW17      29.85R
CEDAR ISLAND     N/A     63 N/A N/A NW16G26   29.88R
JACKSONVILLE   CLEAR     61  50  67 NW14      29.87R
PINEY ISLAND   PTCLDY    64  53  67 N17G25    29.84R
WILMINGTON     PTCLDY    61  51  70 N8        29.88R


$$

NCZ011>013-027>030-043-044-078>080-089-090>093-098-220600-
COASTAL PLAIN

CITY           SKY/WX    TMP DP  RH WIND       PRES   REMARKS
AHOSKIE        PTCLDY    55  48  76 CALM      29.86F
CLINTON        CLOUDY    60  46  59 NW8       29.92S
ELIZABETHTOWN  MOCLDY    60  46  59 NW6       29.92R
GOLDSBORO      CLOUDY    60  45  56 NW10      29.88S
GREENVILLE     PTCLDY    59  50  72 NW5       29.90S
HAVELOCK       PTCLDY    62  50  64 N12       29.87R
KENANSVILLE    CLOUDY    59  42  52 NW8       29.90F
KINSTON        PTCLDY    60  43  54 NW9       29.90S
NEW BERN       CLOUDY    63  51  65 N9        29.88R
RICHLANDS      CLOUDY    61  45  55 NW3       29.89S
ROCKY MOUNT    MOCLDY    58  42  55 NW8       29.90S
WASHINGTON     PTCLDY    56  51  82 CALM      29.88S
WHITEVILLE     PTCLDY    60  47  62 N3        29.91S

$$

AMZ130-135-150-152-154-156-158-170-250-252-270-ANZ085-086-088-633-658-670-220600-
MARINE OBSERVATIONS

STATION/POSITION TIME  TEMP    WIND        PRES    WAVE   SWELL
                       AIR SEA DIR/SP/G            HT/PER HT/PER
                 (UTC) (F)     (DEG/KT/KT) (MB)    (FT/S) (FT/S)
CHESAPEAKE LIGHT 0500   61     330/ 15/ 15 1010.5
64 E VA BEACH    0500   69 69  270/  6/  8 1008.9    4/ 6   3/ 6
DUCK             0500   62 69  320/ 15/ 18 1009.0
2 E DUCK         0400                        N/A     2/ 8
10 NE DUCK       0500      71                N/A     3/ 8
OREGON INLET     0500   63 69  310/ 14/ 18 1009.6
13E OREGON INLT  0500      74                N/A     2/11   2/11
HATTERAS CG      0500   69 72  270/ 13/ 16 1009.7
DIAMOND BUOY     0500   72     270/ 16/ 17 1009.6    4/ 5   2/ 8
17 S OCRACOKE    0400          VRB 14/ 17  1010.2
CAPE LOOKOUT     0500   71     260/ 13/ 16 1009.8
BEAUFORT LAB     0500   63 71  330/  7/ 15 1009.9
30 SE NEW RIVER  0500   74 76  260/ 14/ 16 1009.9    3/ 5   2/11
5 SE WRIGHTSVLE  0500   63 73  360/ 19/ 21   N/A
225 S CAPE HAT   0441   78 80  260/ 14/ 16 1012.1    3/10   2/10
41 SE CHARLESTON 0500   76 79  260/ 16/ 21 1012.0    3/ 4   2/10

$$



USA.gov is the U.S. government's official web portal to all federal, state and local government web resources and services.